321  
SXUS55 KTWC 151615  
OSOTWC  
 
WEATHER ROUNDUP FOR SOUTHEAST ARIZONA  
NATIONAL WEATHER SERVICE TUCSON AZ  
915 AM MST SUN SEP 15 2019  
 
AZZ504>506-514-151715-  
LOCATION SKY/WX TMP DP RH WIND PRES REMARKS  
TUCSON PTSUNNY 71 65 81 SE9 30.07R  
DAVIS-MONTHAN MOSUNNY 70 66 85 E10 30.05S  
CHILDRENS PARK N/A N/A N/A 83 SE7 PIMA CO DEQ  
ALVERNON/22ND N/A 68 N/A N/A E6 PIMA CO DEQ  
CHERRY/GLENN N/A N/A N/A N/A N/A PIMA CO DEQ  
TANGERINE N/A 74 N/A N/A S5 PIMA CO DEQ  
CONTL RANCH N/A 74 65 74 S9 PIMA CO DEQ  
GRANT/1ST N/A 69 67 92 E7 PIMA CO DEQ  
CRAYCROFT/22ND N/A 68 66 94 E7 PIMA CO DEQ  
GOLFLINKS/KOLB N/A N/A N/A N/A N/A PIMA CO DEQ  
AJO/12TH N/A 68 67 98 E5 PIMA CO DEQ  
FAIRGROUNDS N/A 66 N/A N/A E9 PIMA CO DEQ  
SAGUARO N/A 69 67 93 W2 *SABINO CYN  
SAN CARLOS N/A 68 63 85 CALM *SAN CARLOS  
GREEN VALLEY N/A 69 67 93 NE3 PIMA CO DEQ  
HORSE CAMP CYN N/A 68 59 72 NE10G18 *ARAVAIPA CYN  
RINCON MTNS NOT AVBL  

 
 
AZZ509>511-151715-  
LOCATION SKY/WX TMP DP RH WIND PRES REMARKS  
SAFFORD CLOUDY 67 64 90 NW5 30.11S  
STRAY HORSE N/A 52 52 99 CALM *  
TRAIL CABIN N/A 56 55 98 E3 *N OF GRANVILLE  
BLACK HILLS NOT AVBL  
DRY LAKE N/A 53 53 100 NE2 *NATANES MTNS  
NOON CREEK NOT AVBL  
COLUMBINE N/A 50 49 98 SW3 *PINALENO MTNS  
GUTHRIE N/A 56 56 99 S5G10 *SW OF GUTHRIE  

 
 
AZZ502-503-513-151715-  
LOCATION SKY/WX TMP DP RH WIND PRES REMARKS  
NOGALES CLOUDY 72 65 78 CALM 30.12R  
SELLS N/A 82 64 54 S2 *  
SASABE N/A 77 63 62 S3 *ALTAR VLY  
HOPKINS N/A 57 57 100 W9G17 *SANTA RITA MTNS  
CARR CYN N/A 65 63 92 CALM *W OF HEREFORD  

 
 
AZZ507-508-512-151715-  
LOCATION SKY/WX TMP DP RH WIND PRES REMARKS  
SIERRA VISTA CLOUDY 66 61 82 CALM 30.18  
DOUGLAS MOSUNNY 69 61 75 SW5 30.15R  
EMPIRE MTNS NOT AVBL  
MULESHOE RANCH N/A 65 60 83 NW5 *PRESERVE  
HEADQUARTERS NOT AVBL  

 
   
............................NOTES..........................
 
 
THIS IS AN AUTOMATED COLLECTIVE WITH MINIMAL QUALITY CONTROL.  
PIMA CO DEQ SITES HAVE NONSTANDARD WIND SENSOR HEIGHTS.  
PIMA CO DEQ SITES DO NOT REPORT WIND GUSTS.  
* INDICATES WIND SENSORS LOCATED AT 20 FEET INSTEAD OF 33 FEET.   
.............................KEY...........................
 
 
SKY/WX - SKY CONDITION/WEATHER  
TMP - TEMPERATURE IN FAHRENHEIT  
DP - DEWPOINT IN FAHRENHEIT  
RH - RELATIVE HUMIDITY IN PERCENT  
WIND - DIRECTION AND SPEED IN MILES PER HOUR (MPH)  
VRB - VARIABLE WIND DIRECTION  
PRES - MEAN SEA LEVEL PRESSURE IN INCHES OF MERCURY  
F - FALLING PRESSURE R - RISING PRESSURE  
S - STEADY PRESSURE  
VSB - VISIBILITY IN MILES  
HX - HEAT INDEX IN FAHRENHEIT  
WCI - WIND CHILL INDEX IN FAHRENHEIT  
N/A - NOT AVAILABLE  
AFB - AIR FORCE BASE  
DAVIS-MONTHAN IS DAVIS-MONTHAN AIR FORCE BASE  
CYN - CANYON  
MTNS - MOUNTAINS  
NCA - NATIONAL CONSERVATION AREA  
NR - NEAR  
VLY - VALLEY  
CONTL - CONTINENTAL  
PIMA CO DEQ - PIMA COUNTY DEPT OF ENVIRONMENTAL QUALITY  
 
CLICK HERE TO GO TO PREVIOUS BULLETINS.

The Nexlab AZ Page Main Text Page